Tracking 31027 objects as of 19-Jul-2025
HD Live streaming from Space Station
objects crossing your sky now

QIANFAN-38

Track QIANFAN-38 now!
10-day predictions
QIANFAN-38 is classified as:


NORAD ID: 62239
Int'l Code: 2024-232C
Perigee: 1,066.5 km
Apogee: 1,085.3 km
Inclination: 89.0 °
Period: 106.6 minutes
Semi major axis: 7446 km
RCS: Unknown
Launch date: December 5, 2024
Source: People's Republic of China (PRC)
Launch site: Taiyaun Space Center, China (TSC)
Your satellite tracking list
ABS 3
Track 1 satellite(s)




NASA's NSSDC Master Catalog

Two Line Element Set (TLE):
1 62239U 24232C   25199.85019189  .00000070  00000-0  90026-4 0  9990
2 62239  88.9940  56.1023 0012590 259.4727 100.5006 13.50952085 79390
Source of the keplerian elements: AFSPC